Flag for Israel Weather past 2 weeks in Bnei Brak, Israel

Now
75 °F

Passing clouds.


Feels Like: 77 °F
Forecast: 75 / 86 °F
Wind: 5 mph from Southeast

Location: Dov Airport

Current Time: Sep 22, 2014 at 6:13:21 AM

Latest Report: Sep 22, 2014 at 4:50 AM


Visibility: N/A

Pressure: 29.83 "Hg

Humidity: 61%

Dew point: 61 °F

Location of Bnei BrakLocation

Historic Weather in Bnei Brak — Graph

°F

Bnei Brak temperature yesterday

Maximum temperature yesterday: 86 °F (at 11:50 AM)
Minimum temperature yesterday: 75 °F (at 5:50 AM)
Average temperature yesterday: 82 °F

Past Weeks' High & Low Weather Summary

 TemperatureHumidityPressure
High91 °F (Sep 17, 3:50 PM)78% (Sep 10, 6:50 AM)29.95 "Hg (Sep 10, 6:50 AM)
Low75 °F (Sep 10, 6:50 AM)31% (Sep 17, 9:50 AM)29.68 "Hg (Sep 17, 3:50 PM)
Average83 °F61%29.86 "Hg
* Reported Sep 7 5:50 AM — Sep 22 4:50 AM, Bnei Brak, Weather by CustomWeather, © 2014

Note: Actual official high and low records may vary slightly from our data, if they occured in-between our weather recording intervals... More about our weather records

Advertising

Bnei Brak weather history for previous 24 hours

 ConditionsComfort  
Time TempWeatherWind HumidityBarometerVisibility
4:50 AM
Sep 22
75 °FPassing clouds.5 mph61%29.83 "HgN/A
11:50 PM
Sep 21
81 °FPassing clouds.7 mph51%29.86 "HgN/A
10:50 PM81 °FPassing clouds.7 mph51%29.86 "HgN/A
9:50 PM81 °FPassing clouds.8 mph54%29.86 "HgN/A
8:50 PM81 °FPassing clouds.8 mph58%29.86 "HgN/A
7:50 PM81 °FPassing clouds.12 mph54%29.86 "HgN/A
6:50 PM82 °FPassing clouds.10 mph48%29.83 "HgN/A
5:50 PM84 °FPassing clouds.13 mph48%29.83 "HgN/A
4:50 PM84 °FPassing clouds.13 mph51%29.83 "HgN/A
3:50 PM84 °FPassing clouds.14 mph51%29.83 "HgN/A
2:50 PM86 °FPassing clouds.13 mph49%29.83 "HgN/A
1:50 PM86 °FPassing clouds.10 mph55%29.86 "HgN/A
12:50 PM86 °FPassing clouds.10 mph52%29.86 "HgN/A
11:50 AM86 °FPassing clouds.9 mph52%29.86 "HgN/A
10:50 AM84 °FPassing clouds.7 mph55%29.89 "HgN/A
9:50 AM84 °FScattered clouds.7 mph58%29.89 "HgN/A
8:50 AM82 °FScattered clouds.2 mph58%29.86 "HgN/A
7:50 AM79 °FPartly sunny.2 mph65%29.86 "HgN/A
6:50 AM75 °FPassing clouds.3 mph74%29.86 "HgN/A
Weather by CustomWeather, © 2014

See weather overviewHow to use our weather pages